BEIDOU-3 M8 (C30)

Last updated on Oct. 23, 2020, 5:57 a.m. UTC

1 43246U 18029B   20296.39016310 -.00000115  00000-0  10000-3 0  9993
2 43246  55.3157  11.0963 0003306 328.5800  38.5803  1.86232712 17451
UTC
Height (km)
Latitude
Longitude
Inclination
Orbital Period
UTC large
Height (km)
Speed (km/s)
/
Latitude / Longitude
Inclination (degrees)
Orbital Period (minutes)
Azimuth
Elevation
Range (km)
Doppler Factor
iOS Compass Heading
iOS Angle

Next 30 passes for location: Hong Kong

Rise time Rise Azimuth (degrees) Set time Set Azimuth (degrees) Duration Max altitude (degrees)

No matching passes for this satellites